EW5254 Weather Reports


Display with metric or nautical units.
time (UTC)temp
F
wind
direction
speed
MPH
gust
MPH
rain 1hr
in
rain 24hr
in
rain mn
in
humidity
%
barometer
mb
20260831081544 72 162 12.0 21.0 0.00 0.00 0.00 60 1000.8
20260831080034 72 167 13.0 22.0 0.00 0.00 0.00 60 1000.8
20260831074541 72 157 13.0 24.0 0.00 0.00 0.00 60 1001.1
20260831073100 72 130 15.0 24.0 0.00 0.00 0.00 60 1001.2
20260831071529 72 129 14.0 24.0 0.00 0.00 0.00 60 1001.2
20260831070034 73 169 16.0 22.0 0.00 0.00 0.00 59 1001.2
20260831064534 73 144 15.0 23.0 0.00 0.00 0.00 59 1001.3
20260831063023 73 155 13.0 24.0 0.00 0.00 0.00 59 1001.5
20260831061530 74 165 14.0 23.0 0.00 0.00 0.00 58 1001.6
20260831060019 74 188 13.0 24.0 0.00 0.00 0.00 57 1001.6
20260831054516 74 136 13.0 24.0 0.00 0.00 0.00 56 1001.7
20260831053021 75 177 17.0 25.0 0.00 0.00 0.00 55 1001.6
20260831051514 75 135 17.0 31.0 0.00 0.00 0.00 55 1001.5
20260831050028 76 109 17.0 26.0 0.00 0.00 0.00 54 1001.7
20260831044507 76 128 17.0 30.0 0.00 0.00 0.00 53 1001.7
20260831043009 76 147 17.0 29.0 0.00 0.00 0.00 52 1001.7
20260831041506 77 144 19.0 30.0 0.00 0.00 0.00 51 1001.4
20260831040020 77 147 17.0 31.0 0.00 0.00 0.00 49 1001.4
20260831034507 78 143 17.0 31.0 0.00 0.00 0.00 48 1001.2
20260831033005 78 161 17.0 30.0 0.00 0.00 0.00 47 1000.8
20260831031504 79 151 16.0 31.0 0.00 0.00 0.00 45 1001.0
20260831030012 79 138 18.0 29.0 0.00 0.00 0.00 43 1000.6
20260831024504 80 139 16.0 28.0 0.00 0.00 0.00 41 1000.3
20260831023003 81 174 16.0 25.0 0.00 0.00 0.00 40 1000.0
20260831021502 81 148 14.0 22.0 0.00 0.00 0.00 38 999.9
20260831020002 82 146 15.0 22.0 0.00 0.00 0.00 35 999.8
20260831014501 82 135 14.0 21.0 0.00 0.00 0.00 36 999.7
20260831013001 83 145 12.0 21.0 0.00 0.00 0.00 36 999.7
20260831011601 83 121 11.0 23.0 0.00 0.00 0.00 36 999.8
20260831004559 85 97 9.0 16.0 0.00 0.00 0.00 34 999.8
20260831003058 85 126 7.0 14.0 0.00 0.00 0.00 34 999.8
20260831001558 86 121 4.0 9.0 0.00 0.00 0.00 34 999.8
20260830234601 87 144 4.0 11.0 0.00 0.00 0.00 34 999.8
20260830233103 88 99 8.0 13.0 0.00 0.00 0.00 33 999.8
20260830231556 87 143 6.0 11.0 0.00 0.00 0.00 34 999.7
20260830230055 87 82 10.0 16.0 0.00 0.00 0.00 33 999.9
20260830224554 88 116 6.0 12.0 0.00 0.00 0.00 33 999.8
20260830223053 88 115 6.0 15.0 0.00 0.00 0.00 34 999.9
20260830221552 88 134 7.0 13.0 0.00 0.00 0.00 34 1000.0
20260830214550 88 150 5.0 14.0 0.00 0.00 0.00 33 1000.1
20260830213048 90 232 4.0 14.0 0.00 0.00 0.00 32 1000.3
20260830211549 90 130 6.0 12.0 0.00 0.00 0.00 32 1000.4
20260830210044 89 155 5.0 16.0 0.00 0.00 0.00 33 1000.8
20260830204554 90 130 4.0 11.0 0.00 0.00 0.00 32 1001.1
20260830203039 90 106 7.0 14.0 0.00 0.00 0.00 33 1001.3
20260830201535 88 111 6.0 13.0 0.00 0.00 0.00 35 1001.7
20260830200037 88 217 8.0 13.0 0.00 0.00 0.00 35 1001.9
20260830194530 85 197 3.0 14.0 0.00 0.00 0.00 38 1002.1
20260830193029 84 64 6.0 10.0 0.00 0.00 0.00 38 1002.4
20260830191607 85 188 2.0 9.0 0.00 0.00 0.00 38 1002.6
20260830190033 85 202 10.0 13.0 0.00 0.00 0.00 37 1002.5
20260830184527 87 114 6.0 10.0 0.00 0.00 0.00 36 1002.8
20260830183025 87 5 2.0 7.0 0.00 0.00 0.00 35 1003.0
20260830181524 85 9 2.0 14.0 0.00 0.00 0.00 37 1003.3
20260830180032 86 338 0.0 8.0 0.00 0.00 0.00 37 1003.6
20260830174526 85 158 3.0 8.0 0.00 0.00 0.00 37 1003.7
20260830173020 85 215 7.0 11.0 0.00 0.00 0.00 38 1004.0
20260830171519 84 225 7.0 15.0 0.00 0.00 0.00 39 1004.0
20260830170018 84 196 8.0 11.0 0.00 0.00 0.00 40 1004.1
20260830164514 83 162 6.0 12.0 0.00 0.00 0.00 43 1004.2
20260830163031 82 192 6.0 12.0 0.00 0.00 0.00 42 1004.2
20260830161509 82 148 7.0 11.0 0.00 0.00 0.00 44 1004.2
20260830160008 81 222 8.0 14.0 0.00 0.00 0.00 45 1004.2
20260830154507 80 207 9.0 14.0 0.00 0.00 0.00 47 1004.1
20260830153001 79 209 11.0 16.0 0.00 0.00 0.00 49 1004.1
20260830151559 78 164 10.0 17.0 0.00 0.00 0.00 50 1004.1
20260830150057 77 181 10.0 17.0 0.00 0.00 0.00 51 1004.1
20260830144606 77 202 11.0 20.0 0.00 0.00 0.00 51 1004.1
20260830143051 76 196 13.0 21.0 0.00 0.00 0.00 54 1003.9
20260830141549 75 192 13.0 22.0 0.00 0.00 0.00 55 1003.9
20260830140054 74 209 12.0 19.0 0.00 0.00 0.00 56 1004.0
20260830134545 73 190 13.0 20.0 0.00 0.00 0.00 58 1004.0
20260830133059 73 207 11.0 21.0 0.00 0.00 0.00 59 1003.9
20260830131553 72 179 10.0 19.0 0.00 0.00 0.00 60 1003.8
20260830130057 72 177 11.0 18.0 0.00 0.00 0.00 60 1003.6
20260830124541 71 191 11.0 17.0 0.00 0.00 0.00 61 1003.3
20260830123039 71 167 12.0 17.0 0.00 0.00 0.00 61 1003.2
20260830121541 71 168 9.0 15.0 0.00 0.00 0.00 62 1003.1
20260830120058 70 207 7.0 11.0 0.00 0.00 0.00 64 1003.2
20260830114536 70 245 3.0 8.0 0.00 0.00 0.00 63 1003.3
20260830113030 71 191 6.0 12.0 0.00 0.00 0.00 61 1003.2
20260830111532 72 194 9.0 16.0 0.00 0.00 0.00 60 1002.8
20260830110031 72 147 8.0 13.0 0.00 0.00 0.00 60 1002.8
20260830104527 72 169 9.0 17.0 0.00 0.00 0.00 60 1002.6
20260830103030 72 177 8.0 13.0 0.00 0.00 0.00 59 1002.8
20260830101525 72 200 6.0 10.0 0.00 0.00 0.00 59 1002.9
20260830100031 72 186 4.0 9.0 0.00 0.00 0.00 60 1003.0
20260830094534 72 200 0.0 7.0 0.00 0.00 0.00 59 1003.1
20260830093031 73 186 6.0 16.0 0.00 0.00 0.00 58 1002.9
20260830091525 73 181 10.0 16.0 0.00 0.00 0.00 58 1002.5
20260830090018 73 165 7.0 19.0 0.00 0.00 0.00 58 1002.7
20260830084518 73 137 9.0 19.0 0.00 0.00 0.00 57 1002.5
20260830083017 73 138 12.0 20.0 0.00 0.00 0.00 57 1002.5